Overview Statistics Trail Chart Weather Telemetry Raw packets
 

This is the latest recevied weather packets stored in our database for station/object KJ7HSW. If no packets are shown the sender has not sent any weather packets the latest 10 day(s).

<< 109 110 111 112 113 114 >>
Time Temp. Humidity Pressure Rain* Wind** Luminosity Snow
1787774359 23.33° C 61% 1015.9 hPa 0 mm - 721 W/m² -
1787774055 23.33° C 64% 1016 hPa 0 mm - 712 W/m² -
1787773753 23.33° C 61% 1016.2 hPa 0 mm - 701 W/m² -
1787773448 23.89° C 61% 1016.2 hPa 0 mm - 713 W/m² -
1787773143 23.33° C 62% 1016 hPa 0 mm - 667 W/m² -
1787772839 23.33° C 62% 1016.2 hPa 0 mm - 726 W/m² -
1787772537 22.78° C 63% 1016.3 hPa 0 mm - 718 W/m² -
1787772237 22.78° C 63% 1016.2 hPa 0 mm - 708 W/m² -
1787771936 22.78° C 64% 1016.4 hPa 0 mm - 721 W/m² -
1787771630 22.22° C 64% 1016.3 hPa 0 mm - 731 W/m² -
1787771325 22.78° C 64% 1016.2 hPa 0 mm - 689 W/m² -
1787771020 22.78° C 63% 1016.2 hPa 0 mm - 696 W/m² -
1787770719 22.78° C 65% 1016.3 hPa 0 mm - 684 W/m² -
1787770414 22.22° C 64% 1016.5 hPa 0 mm - 684 W/m² -
1787770113 21.67° C 67% 1016.5 hPa 0 mm - 680 W/m² -
1787769806 22.22° C 65% 1016.5 hPa 0 mm - 683 W/m² -
1787769506 21.67° C 67% 1016.6 hPa 0 mm - 585 W/m² -
1787769200 21.67° C 66% 1016.6 hPa 0 mm - 680 W/m² -
1787768895 21.67° C 68% 1016.7 hPa 0 mm - 704 W/m² -
1787768591 21.11° C 69% 1016.8 hPa 0 mm - 678 W/m² -
1787768287 21.11° C 69% 1016.7 hPa 0 mm - 530 W/m² -
1787767983 20.56° C 69% 1016.6 hPa 0 mm - 322 W/m² -
1787767677 20.56° C 69% 1016.6 hPa 0 mm - 252 W/m² -
1787767377 20.56° C 69% 1016.8 hPa 0 mm - 263 W/m² -
1787767076 21.11° C 67% 1016.8 hPa 0 mm - 330 W/m² -

* Rain latest hour (hover to see other rain measurements)
** Current wind speed in m/s (hover to see current wind gust speed)